Location: Long Island Community Building
(39.9491°N, 99.5338°W)
Time: 14:12:21
(UTC+00:00)

CZ-4C R/B - Pass Details

Date: 06 December 2019
Orbit: 646 x 1356 km, 63.4° (Epoch: 25 January)

Event Time Altitude Azimuth Distance (km) Brightness Sun altitude
Exits shadow 12:07:02 17° 325° (NW) 2,577 4.3 -18.3°
Maximum altitude 12:13:08 85° 238° (WSW) 1,271 3.0 -17.1°
Drops below altitude 10° 12:21:30 10° 151° (SSE) 3,379 6.0 -15.6°
Sets 12:24:27 0° 151° (SSE) 4,367 6.6 -15.1°
